CAPE
1 4 0 0 0 0 3 0 0 0 0 0 0 0 0 0 0 0 0 0 0 0 0 0 0 0 0 0 0 0 0 0 0 0 0 0 0 0 0 0 0 0 0 0 0 0 0
2 1 0 0 0 0 2 0 0 0 0 0 0 0 0 0 0 0 0 0 0 0 0 0 0 0 0 0 0 0 0 0 0 0 0 0 0 0 0 0 0 0 0 0 0 0 0
3 3 5 6 0 0 0 0 0 0 0 0 0 0 0 0 0 0 0 0 0 0 0 0 0 0 0 0 0 0 0 0 0 0 0 0 0 0 0 0 0 0 0 0 0 0 0
4 4 3 1 0 0 0 0 0 0 0 0 0 0 0 0 0 0 0 0 0 0 0 0 0 0 0 0 0 0 0 0 0 0 0 0 0 0 0 0 0 0 0 0 0 0 0
5 4 5 2 0 0 0 1 0 0 0 0 0 0 0 0 0 0 0 0 0 0 0 0 0 0 0 0 0 0 0 0 0 0 0 0 0 0 0 0 0 0 0 0 0 0 0
4 3 5 3 0 0 2 1 0 0 0 0 0 0 0 0 0 0 0 0 0 0 0 0 0 0 0 0 0 0 0 0 0 0 0 0 0 0 0 0 0 0 0 0 0 0 0
0 3 4 4 4 4 5 0 0 0 0 0 0 0 0 0 0 0 0 0 0 0 0 0 0 0 0 0 0 0 0 0 0 0 0 0 0 0 0 0 0 0 0 0 0 0 0
3 4 5 4 5 3 9 4 0 0 0 0 0 0 0 0 0 0 0 0 0 0 0 0 0 0 0 0 0 0 0 0 0 0 0 0 0 0 0 0 0 0 0 0 0 0 0
2 3 5 5 6 6 4 9 0 0 0 0 0 0 0 0 0 0 0 0 0 0 0 0 0 0 0 0 0 0 0 0 0 0 0 0 0 0 0 0 0 0 0 0 0 0 0
2 5 5 6 3 6 5 12 4 0 0 0 0 0 0 0 0 0 0 0 0 0 0 0 0 0 0 0 0 0 0 0 0 0 0 0 0 0 0 0 0 0 0 0 0 0 0
3 3 4 4 7 7 6 11 0 4 0 0 0 0 0 0 0 0 0 0 0 0 0 0 0 0 0 0 0 0 0 0 0 0 0 0 0 0 0 0 0 0 0 3 0 0 0
1 3 6 3 6 13 14 3 1 2 0 0 0 0 0 0 0 0 0 0 0 0 0 0 0 0 0 0 0 0 0 0 0 0 0 0 0 0 0 0 0 0 1 0 0 0 0
7 12 12 12 17 16 15 7 6 1 0 0 0 0 0 0 0 0 0 0 0 0 0 0 0 0 0 0 0 0 0 0 0 0 0 0 0 0 0 0 0 0 0 0 0 0 0
17 21 32 34 33 24 12 1 0 0 0 0 0 0 0 0 0 0 0 0 0 0 0 0 0 0 0 0 0 0 0 0 0 0 0 0 0 0 0 0 0 0 0 0 0 0 0
27 31 29 29 20 1 4 9 4 1 0 0 0 0 0 0 0 0 0 0 0 0 0 0 0 0 0 0 0 0 0 0 0 0 0 0 0 0 0 0 0 0 0 0 0 0 0
24 21 18 33 13 21 13 7 2 0 0 0 0 0 0 0 0 0 0 0 0 0 0 0 0 0 0 0 0 0 0 0 0 0 0 0 0 0 0 0 0 0 0 0 0 0 0
15 16 8 21 16 10 16 3 0 0 0 0 0 0 0 0 0 0 0 0 0 0 0 0 0 0 0 0 0 0 0 0 0 0 0 0 3 0 0 0 0 0 0 4 0 0 10
2 11 23 18 11 2 3 1 0 0 0 0 0 0 0 0 0 0 0 0 0 0 0 0 0 0 0 0 0 0 0 0 0 0 0 0 0 0 0 0 0 2 0 2 0 0 8
5 10 3 14 2 1 3 4 0 0 0 0 0 0 0 0 0 0 0 0 0 0 0 0 0 0 0 0 0 0 0 0 0 0 0 0 0 0 0 0 0 0 0 1 4 1 0
30 9 6 4 21 13 1 2 0 0 0 0 0 0 0 0 0 0 0 0 0 0 0 0 0 0 0 0 0 0 0 0 0 0 0 0 0 0 0 0 0 0 0 0 2 0 0
16 0 3 12 13 6 2 0 0 0 0 0 0 0 0 0 0 0 0 0 0 0 0 0 0 0 0 0 0 0 0 0 0 0 0 0 0 0 0 0 0 1 0 1 1 0 0
2 0 12 22 4 0 0 0 0 0 0 0 0 0 0 0 0 0 0 0 0 0 0 0 0 0 0 0 0 0 0 0 0 0 0 0 0 0 0 0 0 0 0 0 0 0 2
24 11 0 5 6 0 0 0 0 0 0 0 0 0 0 0 0 0 0 0 0 0 0 0 0 0 0 0 0 0 0 0 0 0 0 0 0 0 0 0 0 0 0 1 1 1 1
23 3 7 4 12 1 0 0 0 0 0 0 0 0 0 0 0 0 0 0 0 0 0 0 0 0 0 0 0 0 0 0 0 0 0 0 0 0 0 0 0 0 0 0 0 1 1
12 8 4 8 16 0 0 0 0 0 0 0 0 0 0 0 0 0 0 0 0 0 0 0 0 0 0 0 0 0 0 0 0 0 0 0 0 0 0 0 0 0 0 1 0 1 0
0 2 8 12 2 0 0 0 0 0 0 0 0 0 0 0 0 0 0 0 0 0 0 0 0 0 0 0 0 0 0 0 0 0 0 0 0 0 0 0 0 0 0 0 1 0 2
0 0 3 3 0 0 0 0 0 0 0 0 0 0 0 0 0 0 0 0 0 0 0 0 0 0 0 0 0 0 0 0 0 0 0 0 0 0 0 0 0 1 0 0 0 0 1
9 2 0 2 1 0 0 0 0 0 0 0 0 0 0 0 0 0 0 0 0 0 0 0 0 0 0 0 0 0 0 0 0 0 1 0 0 0 0 0 0 0 0 0 0 1 0
5 11 3 5 0 0 2 0 0 0 0 0 0 0 0 0 0 0 0 0 0 0 0 0 0 0 0 0 0 0 0 0 0 0 0 0 0 0 0 1 1 1 0 0 0 2 1
CIN
-0 -0 -0 -0 -0 -0 -0 -0 -0 -0 -0 -0 -0 -0 -0 -0 -0 -0 -0 -0 -0 -0 -0 -0 -0 -0 -0 -0 -0 -0 -0 -0 -0 -0 -0 -0 -0 -0 -0 -0 -0 -0 -0 -0 -0 -0 -0
-0 -0 -0 -0 -0 -0 -0 -0 -0 -0 -0 -0 -0 -0 -0 -0 -0 -0 -0 -0 -0 -0 -0 -0 -0 -0 -0 -0 -0 -0 -0 -0 -0 -0 -0 -0 -0 -0 -0 -0 -0 -0 -0 -0 -0 -0 -0
-0 -0 -0 -0 -0 -0 -0 -0 -0 -0 -0 -0 -0 -0 -0 -0 -0 -0 -0 -0 -0 -0 -0 -0 -0 -0 -0 -0 -0 -0 -0 -0 -0 -0 -0 -0 -0 -0 -0 -0 -0 -0 -0 -0 -0 -0 -0
-0 -0 -0 -0 -0 -0 -0 -0 -0 -0 -0 -0 -0 -0 -0 -0 -0 -0 -0 -0 -0 -0 -0 -0 -0 -0 -0 -0 -0 -0 -0 -0 -0 -0 -0 -0 -0 -0 -0 -0 -0 -0 -0 -0 -0 -0 -0
-0 -0 -0 -0 -0 -0 -0 -0 -0 -0 -0 -0 -0 -0 -0 -0 -0 -0 -0 -0 -0 -0 -0 -0 -0 -0 -0 -0 -0 -0 -0 -0 -0 -0 -0 -0 -0 -0 -0 -0 -0 -0 -0 -0 -0 -0 -0
-0 -0 -0 -0 -0 -0 -0 -0 -0 -0 -0 -0 -0 -0 -0 -0 -0 -0 -0 -0 -0 -0 -0 -0 -0 -0 -0 -0 -0 -0 -0 -0 -0 -0 -0 -0 -0 -0 -0 -0 -0 -0 -0 -0 -0 -0 -0
-0 -0 -0 -0 -0 -0 -0 -0 -0 -0 -0 -0 -0 -0 -0 -0 -0 -0 -0 -0 -0 -0 -0 -0 -0 -0 -0 -0 -0 -0 -0 -0 -0 -0 -0 -0 -0 -0 -0 -0 -0 -0 -0 -0 -0 -0 -0
-12 -0 -0 -0 -0 -0 -0 -0 -0 -0 -0 -0 -0 -0 -0 -0 -0 -0 -0 -0 -0 -0 -0 -0 -0 -0 -0 -0 -0 -0 -0 -0 -0 -0 -0 -0 -0 -0 -0 -0 -0 -0 -0 -0 -0 -0 -0
-1 -0 -0 -0 -0 -0 -0 -0 -0 -0 -0 -0 -0 -0 -0 -0 -0 -0 -0 -0 -0 -0 -0 -0 -0 -0 -0 -0 -0 -0 -0 -0 -0 -0 -0 -0 -0 -0 -0 -0 -0 -0 -0 -0 -0 -0 -0
-0 -0 -0 -0 -0 -0 -0 -0 -0 -0 -0 -0 -0 -0 -0 -0 -0 -0 -0 -0 -0 -0 -0 -0 -0 -0 -0 -0 -0 -0 -0 -0 -0 -0 -0 -0 -0 -0 -0 -0 -0 -0 -0 -0 -0 -0 -0
-0 -0 -0 -0 -0 -0 -0 -0 -0 -0 -0 -0 -0 -0 -0 -0 -0 -0 -0 -0 -0 -0 -0 -0 -0 -0 -0 -0 -0 -0 -0 -0 -0 -0 -0 -0 -0 -0 -0 -0 -0 -0 -0 -4 -0 -0 -0
-0 -0 -0 -0 -0 -0 -0 -1 -0 -0 -0 -0 -0 -0 -0 -0 -0 -0 -0 -0 -0 -0 -0 -0 -0 -0 -0 -0 -0 -0 -0 -0 -0 -0 -0 -0 -0 -0 -0 -0 -0 -0 -5 -0 -0 -0 -0
-0 -0 -0 -0 -0 -0 -0 -1 -0 -0 -0 -0 -0 -0 -0 -0 -0 -0 -0 -0 -0 -0 -0 -0 -0 -0 -0 -0 -0 -0 -0 -0 -0 -0 -0 -0 -0 -0 -0 -0 -0 -0 -0 -0 -0 -0 -0
-0 -0 -0 -0 -0 -0 -0 -0 -0 -0 -0 -0 -0 -0 -0 -0 -0 -0 -0 -0 -0 -0 -0 -0 -0 -0 -0 -0 -0 -0 -0 -0 -0 -0 -0 -0 -0 -0 -0 -0 -0 -0 -0 -0 -0 -0 -0
-0 -0 -0 -0 -0 -1 -0 -0 -0 -0 -0 -0 -0 -0 -0 -0 -0 -0 -0 -0 -0 -0 -0 -0 -0 -0 -0 -0 -0 -0 -0 -0 -0 -0 -0 -0 -0 -0 -0 -0 -0 -5 -9 -0 -0 -0 -0
-0 -0 -0 -0 -0 -0 -0 -0 -0 -0 -0 -0 -0 -0 -0 -0 -0 -0 -0 -0 -0 -0 -0 -0 -0 -0 -0 -0 -0 -0 -0 -0 -0 -0 -0 -0 -0 -0 -0 -0 -0 -0 -0 -0 -0 -0 -8
-0 -0 -0 -0 -0 -0 -0 -0 -0 -0 -0 -0 -0 -0 -0 -0 -0 -0 -0 -0 -0 -0 -0 -0 -0 -0 -0 -0 -0 -0 -0 -0 -0 -0 -0 -0 -0 -0 -0 -0 -0 -0 -0 -16 -0 -11 -7
-6 -1 -16 -0 -0 -0 -0 -0 -0 -0 -0 -0 -0 -0 -0 -0 -0 -0 -0 -0 -0 -0 -0 -0 -0 -0 -0 -0 -0 -0 -0 -0 -0 -0 -0 -0 -0 -0 -0 -0 -0 -10 -0 -0 -0 -21 -16
-1 -2 -1 -0 -2 -0 -0 -0 -0 -0 -0 -0 -0 -0 -0 -0 -0 -0 -0 -0 -0 -0 -0 -0 -0 -0 -0 -0 -0 -0 -0 -0 -0 -0 -0 -0 -0 -0 -0 -0 -0 -0 -0 -0 -0 -0 -0
-0 -12 -2 -0 -0 -0 -0 -0 -0 -0 -0 -0 -0 -0 -0 -0 -0 -0 -0 -0 -0 -0 -0 -0 -0 -0 -0 -0 -0 -0 -0 -0 -0 -0 -0 -0 -0 -0 -0 -0 -0 -0 -0 -0 -0 -0 -0
-1 -0 -1 -0 -0 -0 -0 -0 -0 -0 -0 -0 -0 -0 -0 -0 -0 -0 -0 -0 -0 -0 -0 -0 -0 -0 -0 -0 -0 -0 -0 -0 -0 -0 -0 -0 -0 -0 -0 -0 -0 -0 -0 -0 -0 -0 -0
-5 -1 -1 -0 -2 -0 -0 -0 -0 -0 -0 -0 -0 -0 -0 -0 -0 -0 -0 -0 -0 -0 -0 -0 -0 -0 -0 -0 -0 -0 -0 -0 -0 -0 -0 -0 -0 -0 -0 -0 -0 -0 -0 -0 -0 -0 -0
-2 -0 -0 -1 -2 -0 -0 -0 -0 -0 -0 -0 -0 -0 -0 -0 -0 -0 -0 -0 -0 -0 -0 -0 -0 -0 -0 -0 -0 -0 -0 -0 -0 -0 -0 -0 -0 -0 -0 -0 -0 -0 -0 -0 -0 -0 -0
-0 -4 -2 -2 -2 -1 -0 -0 -0 -0 -0 -0 -0 -0 -0 -0 -0 -0 -0 -0 -0 -0 -0 -0 -0 -0 -0 -0 -0 -0 -0 -0 -0 -0 -0 -0 -0 -0 -0 -0 -0 -0 -0 -0 -0 -0 -0
-0 -1 -3 -1 -2 -0 -0 -0 -0 -0 -0 -0 -0 -0 -0 -0 -0 -0 -0 -0 -0 -0 -0 -0 -0 -0 -0 -0 -0 -0 -0 -0 -0 -0 -0 -0 -0 -0 -0 -0 -0 -0 -0 -0 -0 -0 -0
-0 -6 -3 -1 -7 -0 -0 -0 -0 -0 -0 -0 -0 -0 -0 -0 -0 -0 -0 -0 -0 -0 -0 -0 -0 -0 -0 -0 -0 -0 -0 -0 -0 -0 -0 -0 -0 -0 -0 -0 -0 -0 -0 -0 -0 -0 -0
-0 -0 -5 -2 -0 -0 -0 -0 -0 -0 -0 -0 -0 -0 -0 -0 -0 -0 -0 -0 -0 -0 -0 -0 -0 -0 -0 -0 -0 -0 -0 -0 -0 -0 -0 -0 -0 -0 -0 -1 -0 -0 -0 -0 -0 -0 -0
-2 -5 -0 -4 -1 -0 -0 -0 -0 -0 -0 -0 -0 -0 -0 -0 -0 -0 -0 -0 -0 -0 -0 -0 -0 -0 -0 -0 -0 -0 -0 -0 -0 -0 -0 -0 -0 -0 -0 -0 -0 -0 -0 -0 -0 -0 -0
-0 -2 -3 -1 -0 -0 -1 -0 -0 -0 -0 -0 -0 -0 -0 -0 -0 -0 -0 -0 -0 -0 -0 -0 -0 -0 -0 -0 -0 -0 -0 -0 -0 -0 -0 -0 -0 -0 -0 -0 -0 -0 -0 -0 -0 -0 -0
Wind_Speed
22 21 17 15 13 14 12 13 13 16 16 16 17 18 20 21 22 24 26 27 28 29 30 30 30 30 25 26 25 21 26 27 25 27 28 28 28 29 31 32 36 40 42 44 47 48 48
27 25 22 18 16 15 14 13 13 13 12 15 15 18 20 22 22 24 26 27 28 29 29 28 26 25 25 30 20 22 26 26 27 27 28 26 28 29 35 35 36 39 50 51 51 50 47
31 28 26 20 18 16 15 15 14 12 12 15 16 17 18 21 23 25 27 28 28 28 27 24 22 21 24 24 21 25 25 25 27 26 29 27 28 30 32 40 37 39 55 57 59 50 46
34 31 28 24 21 18 17 15 15 14 14 14 14 17 19 22 24 26 28 29 29 28 23 20 19 20 25 18 24 26 23 29 28 26 29 30 30 32 32 34 40 44 45 54 53 44 42
37 33 30 28 24 20 19 16 15 14 13 15 14 17 17 21 23 26 28 30 30 23 15 13 18 21 24 23 23 24 23 29 29 30 29 30 29 32 33 40 47 39 52 53 69 44 48
42 39 34 30 26 22 19 17 16 15 13 14 14 17 18 20 24 25 28 27 18 13 12 14 19 22 19 22 24 27 25 29 32 33 33 29 30 34 35 36 52 52 53 58 61 58 53
42 40 36 32 27 23 20 20 16 16 14 14 15 17 18 18 20 20 21 13 16 18 15 18 19 20 21 24 25 28 27 29 26 29 34 30 36 43 41 35 43 52 56 61 63 56 63
42 38 36 31 28 23 20 18 16 17 16 15 16 17 17 17 18 20 13 13 14 17 21 17 17 19 21 22 28 30 22 30 33 40 33 34 41 38 37 37 41 47 56 59 54 53 51
40 37 36 31 28 23 20 18 18 19 15 15 14 15 15 14 16 13 12 12 14 16 20 18 15 18 20 18 26 31 26 31 35 35 34 37 38 35 38 40 42 45 47 49 51 56 48
38 36 33 30 27 22 20 20 16 18 15 17 15 15 15 16 12 10 14 16 13 16 22 20 18 19 17 21 23 30 27 30 29 34 35 34 29 32 35 36 36 45 35 42 48 45 47
37 33 31 27 24 23 18 18 16 14 14 13 14 13 13 14 11 10 12 14 11 15 28 14 15 15 23 22 27 26 29 28 30 33 30 35 34 34 33 33 32 37 31 38 38 33 38
33 30 27 23 22 20 18 14 14 12 15 11 11 12 12 10 11 11 12 11 14 18 23 15 16 21 23 26 26 25 27 28 21 27 25 30 26 26 24 34 30 17 22 25 20 19 29
27 27 24 20 18 18 16 13 14 10 8 9 9 13 12 11 9 10 12 10 16 19 15 17 17 22 24 28 23 26 26 33 33 37 39 33 27 22 16 26 27 16 11 23 25 22 26
18 18 17 15 13 13 14 14 10 6 12 11 9 13 12 9 9 10 8 12 19 16 15 16 19 21 21 26 22 26 27 31 30 30 33 32 32 23 13 13 9 14 10 15 24 24 17
12 13 12 10 10 12 11 10 12 6 8 11 11 9 10 9 7 9 8 15 16 13 14 17 19 18 20 23 22 25 23 23 26 30 30 29 29 11 15 5 6 13 14 11 8 3 10
8 9 8 9 9 9 8 7 7 8 8 9 6 7 10 4 2 8 10 12 12 12 12 13 17 17 22 23 23 25 21 17 21 29 32 29 35 13 33 13 14 16 15 12 12 7 10
4 6 8 9 8 7 7 7 7 8 8 5 8 7 9 3 5 8 11 12 12 10 11 12 14 17 19 22 22 21 17 17 20 31 33 23 26 25 26 23 24 19 15 14 14 12 10
4 5 7 7 7 8 6 5 7 7 6 6 9 11 7 6 10 10 9 11 10 8 12 13 13 16 18 21 20 17 14 16 25 32 28 16 25 24 22 13 6 11 19 19 16 15 15
5 6 7 7 9 8 8 6 5 8 9 6 9 8 10 11 12 9 14 9 8 8 10 11 14 15 18 20 19 14 15 8 16 28 23 22 24 25 23 22 24 24 24 20 22 19 15
5 6 8 8 9 7 7 6 7 10 10 8 7 10 9 11 15 13 10 7 5 8 10 12 13 15 19 17 15 14 10 8 6 13 21 24 24 24 24 27 28 23 24 22 20 18 17
5 6 7 8 10 9 8 7 8 13 12 10 11 10 10 13 16 12 10 7 6 8 10 12 13 15 16 18 20 16 17 21 13 15 19 25 25 25 25 22 25 18 18 18 16 19 18
8 7 8 8 8 9 8 10 13 14 14 10 11 10 13 12 10 9 11 7 5 8 9 11 13 14 14 15 13 7 14 21 15 18 26 25 21 24 19 21 17 21 19 16 17 17 13
11 10 10 10 9 11 13 13 14 14 14 12 13 13 13 14 10 8 7 6 7 7 10 12 13 15 16 13 12 1 1 4 1 5 12 20 19 21 20 19 17 17 21 17 15 18 17
14 14 15 13 11 12 16 15 15 14 14 13 13 15 13 10 9 11 13 8 7 10 9 12 15 16 16 27 27 8 9 6 9 10 9 18 19 18 20 17 14 16 21 17 18 18 18
14 15 17 18 16 17 15 14 15 14 13 12 15 16 14 10 10 9 7 7 9 12 12 12 17 19 25 21 16 15 15 15 17 17 24 10 18 19 19 17 14 14 18 19 18 17 19
11 12 19 18 16 14 13 13 14 14 13 11 12 13 14 10 14 14 10 11 11 13 14 15 19 20 21 17 14 15 14 15 15 22 23 19 18 18 20 20 21 21 24 21 18 17 21
14 18 19 17 13 13 12 13 13 13 12 12 14 14 14 13 15 14 13 12 13 13 13 17 20 19 20 17 14 14 13 15 16 19 21 17 18 18 20 20 20 24 27 21 21 22 24
21 19 17 15 11 12 12 11 12 10 10 14 13 13 14 14 14 16 15 13 13 13 13 17 16 17 17 15 14 12 12 14 14 17 18 20 20 20 20 20 22 28 22 19 22 22 23
18 20 17 15 17 13 12 12 12 11 12 14 16 14 13 14 15 17 19 19 17 15 14 15 15 16 15 15 15 13 12 13 13 13 18 18 19 19 19 19 19 21 20 21 22 23 24
Wind_Direction
255 255 254 258 264 273 281 291 297 299 304 309 311 312 313 316 318 314 313 313 314 315 317 319 321 325 330 320 318 331 327 328 330 329 324 318 311 307 300 300 299 291 293 291 289 289 287
252 253 251 250 258 263 269 279 293 296 304 304 308 308 311 312 316 314 312 311 312 314 316 319 324 329 326 315 333 333 329 328 327 327 322 322 314 311 300 297 295 296 292 291 290 290 292
248 249 246 245 251 259 262 272 281 294 299 301 305 308 310 310 311 312 310 311 311 313 316 321 327 332 326 320 332 324 326 326 326 325 321 321 317 309 308 302 302 299 293 290 283 288 288
245 244 238 242 246 250 256 264 274 287 295 301 305 305 308 308 308 310 308 309 310 311 315 322 328 331 318 328 326 322 327 322 322 320 319 316 316 309 305 304 302 300 296 291 285 292 293
245 238 239 239 244 248 254 257 268 280 291 297 305 304 309 309 311 309 307 308 309 315 321 332 329 326 317 321 327 328 328 323 323 321 320 318 316 309 307 302 300 300 294 292 288 293 288
241 236 236 237 242 243 248 255 265 275 282 291 299 300 309 313 309 309 309 309 325 343 342 333 327 321 321 323 327 325 327 324 320 320 318 319 316 310 308 303 297 299 296 293 291 290 291
239 230 231 231 232 236 244 252 263 272 279 285 292 295 302 312 313 323 328 334 318 316 318 315 318 319 321 323 326 327 328 329 331 327 317 319 313 308 306 303 301 300 298 295 294 296 286
233 228 224 225 228 229 240 247 256 268 274 282 288 292 303 310 314 319 339 327 329 322 310 315 315 316 320 326 323 326 340 327 326 318 321 318 311 315 313 310 305 301 298 297 299 298 290
224 224 217 221 221 229 233 244 255 265 268 276 284 294 304 312 316 326 333 332 332 330 312 312 318 322 326 336 327 328 336 331 324 322 321 315 316 322 318 313 310 305 301 301 300 301 291
219 215 214 215 220 229 230 247 248 258 268 270 278 289 296 302 311 316 313 323 329 329 307 308 313 321 336 332 328 335 343 335 331 325 326 322 328 322 322 317 316 308 312 307 306 302 293
204 206 208 209 215 223 228 239 249 258 262 270 275 282 294 295 305 301 321 331 341 327 298 319 322 338 329 334 331 339 344 344 334 328 328 324 324 325 323 326 327 313 319 316 315 308 300
194 193 196 203 210 219 225 228 239 249 258 265 274 279 290 289 299 315 327 336 331 306 295 312 325 325 326 331 335 345 352 357 350 342 339 330 330 327 333 330 334 333 337 332 333 329 308
177 183 186 192 205 212 217 222 231 242 251 265 272 274 279 289 290 318 320 329 306 296 321 313 319 324 329 331 344 351 350 351 350 337 338 343 343 336 351 346 347 8 29 355 351 347 326
150 169 191 182 195 198 216 222 226 213 246 259 270 273 276 285 311 319 321 304 291 305 309 322 325 329 336 347 346 350 352 351 2 357 345 344 341 350 19 340 349 231 154 16 349 341 277
139 154 171 173 189 204 205 213 225 212 246 259 266 275 282 285 297 308 298 291 295 305 314 318 329 337 342 350 353 354 358 358 4 4 356 346 332 345 266 284 63 202 174 191 185 237 111
183 186 170 182 177 192 195 199 204 222 242 256 250 267 282 316 349 296 297 293 304 308 331 343 332 353 342 350 354 354 0 11 6 351 332 333 307 248 326 313 88 247 221 197 182 156 162
152 163 180 189 183 169 180 203 214 226 239 252 248 281 287 315 310 299 286 290 293 325 342 356 358 354 358 357 358 0 9 14 360 336 310 346 313 287 304 335 328 279 246 233 211 194 177
161 165 174 164 187 199 185 176 221 231 238 247 261 271 273 275 279 289 281 283 308 334 338 356 3 3 4 3 3 13 18 17 350 319 335 20 302 281 277 260 313 57 259 257 228 221 232
187 188 192 194 211 193 196 209 221 236 238 246 262 277 271 271 267 269 268 295 327 349 355 2 4 14 13 11 15 32 24 50 8 341 353 3 308 292 303 320 328 338 272 257 250 231 223
156 173 200 207 213 199 209 220 235 242 241 262 263 270 281 267 266 259 271 301 345 339 358 14 19 19 9 19 35 25 17 58 359 17 347 342 316 302 290 278 284 264 262 266 256 242 240
172 175 206 212 213 209 220 225 240 241 242 257 278 275 265 250 251 264 279 311 339 336 359 8 12 11 16 8 4 28 20 311 42 45 23 336 301 298 272 283 334 310 272 281 290 267 235
198 212 213 208 210 215 224 235 240 241 241 268 266 263 258 247 257 268 282 307 340 342 353 354 358 6 13 9 23 22 20 5 27 23 3 325 301 286 279 325 343 342 329 303 294 297 313
211 210 215 210 214 220 226 235 236 243 246 260 263 253 249 249 265 278 287 302 323 347 346 354 355 356 354 14 16 30 242 225 268 359 16 330 298 282 254 268 324 307 322 328 313 330 300
216 218 221 221 223 226 227 229 239 242 248 255 253 244 250 256 271 276 275 302 327 332 341 343 339 343 359 306 287 0 31 72 58 52 62 320 287 280 253 273 302 299 331 292 338 342 337
220 220 222 220 222 226 228 234 237 244 250 250 248 246 256 256 268 284 299 320 322 325 329 338 323 326 311 338 16 26 26 25 22 35 27 118 283 278 264 268 286 293 306 297 299 324 332
205 216 214 217 220 225 234 236 239 242 243 254 257 262 258 255 266 275 293 303 316 320 321 320 311 320 332 352 19 17 21 20 21 3 13 57 296 291 285 267 267 303 296 288 278 309 322
212 214 214 219 218 229 238 236 239 244 251 257 255 265 266 266 269 277 289 300 312 316 327 316 306 313 332 346 5 19 23 14 16 7 360 31 330 302 291 279 287 308 303 302 290 295 320
217 217 216 222 217 232 239 240 239 249 256 255 259 282 269 274 275 275 281 297 305 312 331 315 325 323 331 348 359 18 30 18 15 8 358 350 355 306 304 294 284 323 320 314 309 322 325
219 218 220 223 223 232 238 237 241 247 252 258 252 275 281 277 284 278 274 279 286 299 316 319 328 326 340 349 358 11 22 16 17 9 348 335 346 346 334 322 338 336 338 336 331 329 327